Погода в Селе Санаторий Воробьево

Россия / Калужская область     54°52′28″N   36°22′57″E
темп.,
°C
ветер,
м/с
пор.,
м/с
влажн.,
%
обл.,
%
осадки,
мм/ч
давл.,
гПа
погр.,
м
11 мая, вт
вт1100:00+5св311820 0.0 1026205
03:00+4св311860 0.0 1027217
06:00+6св413840 0.0 1027348
09:00+12св69620 0.0 1026572
12:00+17св58565 0.0 1025781
15:00+19всв57575 0.0 10241038
18:00+18всв48706 0.0 10241058
21:00+13вюв3795100 0.3 1025154
12 мая, ср
ср1200:00+10юв389511 0.0 1026294
03:00+7юв24954 0.0 102763
06:00+7вюв12912 0.0 102755
09:00+13всв2369100 0.0 1026578
12:00+12ссв237298 0.3 1024669
15:00+12св2782100 0.7 1020329
18:00+11ююв4997100 1.8 1018514
21:00+8ююв389897 2.9 1020326
13 мая, чт
чт1300:00+6вюв389819 0.0 1020170
03:00+6в4109740 0.0 1020222
06:00+7вюв41494100 0.0 1019396
09:00+12вюв4984100 0.0 1018532
12:00+14юв4872100 0.1 1017794
15:00+16ююв4870100 1.0 10161032
18:00+15ююв378386 0.8 1015757
21:00+11ююв2395100 1.8 101557
14 мая, пт
пт1400:00+9ююв249611 0.0 101661
03:00+9ююв2395100 0.0 101744
06:00+10вюв3695100 0.0 1017141
09:00+14вюв41090100 0.1 1015421
12:00+19юв698090 1.1 10141079
15:00+20юв6118099 3.3 10131089
18:00+19ююв61281100 3.9 1011517
21:00+15ююв3119444 4.5 1010251
15 мая, сб
сб1500:00+14ююв3797100 0.6 1010150
03:00+14ю2797100 1.1 1010172
06:00+14юв2697100 0.1 1009147
09:00+15ююв51290100 0.9 1009638
12:00+21ю6967100 0.1 10081037
15:00+20ю587699 2.4 10071015
18:00+18ююз49818 1.8 1007642
21:00+14ююз2792100 2.5 1007155